Regional Weather Roundup
Issued by NWS Bismarck, ND

Home | Current Version | Previous Version | Text Only | Print | Product List | Glossary On
Versions: 1 2 3 4 5 6 7 8 9 10 11 12 13 14 15 16 17 18 19 20 21 22 23 24 25 26 27 28 29 30 31 32 33 34 35 36 37 38 39 40 41 42 43 44 45 46 47 48 49 50
164
ASUS43 KBIS 271310
RWRBIS

NWR BROADCAST TEXT
NATIONAL WEATHER SERVICE BISMARCK ND
800 AM CDT THU APR 27 2017

NOTE: "FAIR" INDICATES FEW OR NO CLOUDS BELOW 12,000 FEET WITH NO
SIGNIFICANT WEATHER AND/OR OBSTRUCTIONS TO VISIBILITY.


CITY           SKY/WX    TMP DP  RH WIND       PRES   REMARKS
WILLISTON      FAIR      31  25  78 NE3       29.77R
MINOT          FAIR      28  23  81 NW9       29.77R WCI  19
MINOT AFB      FAIR      27  22  81 N10       29.77R WCI  18
BISMARCK       CLOUDY    32  26  78 NE6       29.76R
DICKINSON      FAIR      24  22  91 CALM      29.70S
GARRISON         N/A     28  23  81 N5        29.76R
HETTINGER ARPT CLOUDY    28  25  88 E5        29.71S
JAMESTOWN      FAIR      30  22  72 N10       29.72R
HAZEN          FAIR      23  23 100 CALM      29.79R
LINTON           N/A     32  32 100 NW5       29.74S
MANDAN         CLOUDY    27  25  93 NW9       29.75S WCI  17
STANLEY        FAIR      28  27  93 VRB5      29.78S
TIOGA          FAIR      23  23 100 CALM      29.78S
WATFORD CITY   FAIR      27  27 100 E6        29.75F WCI  20
$$

CITY           SKY/WX    TMP DP  RH WIND       PRES   REMARKS
GRAND FORKS    FAIR      24  21  88 NW9       29.74R WCI  14
GRAND FORKS AF FAIR      26  21  82 N8        29.74R WCI  17
DEVILS LAKE    FAIR      30  22  72 N12       29.74S
FARGO          CLOUDY    26  21  81 N17       29.69F WCI  13
CAVALIER       FAIR      30  18  59 N12       29.75S
GRAFTON        FAIR      28  23  80 CALM      29.76S
GWINNER        CLOUDY    28  27  93 MISG      29.69S
LANGDON        FAIR      30  16  55 N13       29.73S
ROLLA          FAIR      27  19  74 N13       29.76S WCI  16
$$

CITY           SKY/WX    TMP DP  RH WIND       PRES   REMARKS
ABERDEEN       CLOUDY    30  24  78 NW14      29.72R WCI  19
MOBRIDGE       CLOUDY    35  25  66 N7        29.70S
BUFFALO          N/A     29  25  85 E5        29.60S
RAPID CITY     FAIR      30  26  85 CALM      29.65R
GLASGOW        FAIR      33  23  66 E14       29.67R
SIDNEY         FAIR      28  25  88 N5        29.75S
WOLF POINT     FAIR      32  25  75 E12       29.72S
GLENDIVE       FAIR      31  27  85 E7        29.70S
MILES CITY     FAIR      35  29  78 NE6       29.63R
BAKER          FAIR      27  24  89 E12       29.68S WCI  17
$$

CITY           SKY/WX    TMP DP  RH WIND       PRES   REMARKS
BILLINGS       MOCLDY    41  37  86 W5        29.57R
GREAT FALLS    CLOUDY    38  34  85 SW8       29.61R
REGINA         MOSUNNY   28  21  74 SE13      29.81R WCI  18
ESTEVAN        MOSUNNY   28  21  74 E8        29.80R
$$





USA.gov is the U.S. government's official web portal to all federal, state and local government web resources and services.